Home > Weather > Behbahan > Past weeks

Flag for Iran Past Weather in Behbahan, Iran — Yesterday and Last 2 Weeks

Now
90 °F

Clear.


Feels Like: 98 °F
Forecast: 80 / 110 °F
Wind: No wind

Location: Gach Saran Du Gunbadan

Current Time: Jul 29, 2016 at 10:32:47 PM

Latest Report: Jul 29, 2016 at 9:30 PM


Visibility: 4 mi

Pressure: 29.68 "Hg

Humidity: 59%

Dew Point: 73 °F

Location of BehbahanLocation

Past Weather in Behbahan — Graph

°F

Behbahan Temperature Yesterday

Maximum temperature yesterday: 106 °F (at 2:30 PM)
Minimum temperature yesterday: 79 °F (at 6:30 AM)
Average temperature yesterday: 92 °F

High & Low Weather Summary for the Past Weeks

 TemperatureHumidityPressure
High117 °F (Jul 16, 2:30 PM)66% (Jul 29, 6:30 AM)29.77 "Hg (Jul 29, 6:30 AM)
Low79 °F (Jul 25, 6:30 AM)3% (Jul 16, 12:30 PM)29.50 "Hg (Jul 23, 5:30 PM)
Average97 °F23%29.66 "Hg
* Reported Jul 14 9:30 PM — Jul 29 9:30 PM, Behbahan, Weather by CustomWeather, © 2016

Note: Actual official high and low records may vary slightly from our data, if they occured in-between our weather recording intervals... More about our weather records

Advertising

Behbahan Weather History for the Previous 24 Hours

Scroll right to see more
 ConditionsComfort  
Time TempWeatherWind HumidityBarometerVisibility
9:30 PM
Fri, Jul 29
90 °FClear.No wind59%29.68 "Hg4 mi
8:30 PM91 °FClear.9 mph56%29.68 "Hg4 mi
6:30 PM99 °FPassing clouds.9 mph39%29.65 "Hg4 mi
5:30 PM99 °FClear.12 mph39%29.65 "Hg4 mi
4:30 PM102 °FPassing clouds.14 mph29%29.68 "Hg4 mi
3:30 PM102 °FPassing clouds.14 mph26%29.68 "Hg4 mi
2:30 PM102 °FPassing clouds.7 mph27%29.71 "Hg3 mi
1:30 PM100 °FPassing clouds.No wind31%29.71 "Hg3 mi
12:30 PM99 °FDuststorm.No wind35%29.74 "Hg3 mi
11:30 AM95 °FDuststorm.No wind41%29.74 "Hg2 mi
10:30 AM93 °FDuststorm.No wind44%29.74 "Hg2 mi
9:30 AM90 °FDuststorm.7 mph55%29.74 "Hg3 mi
8:30 AM86 °FDuststorm.No wind62%29.74 "Hg2 mi
7:30 AM84 °FClear.5 mph66%29.74 "Hg4 mi
6:30 AM82 °FClear.No wind66%29.71 "Hg4 mi
5:30 AM86 °FClear.No wind62%29.71 "Hg4 mi
4:30 AM84 °FClear.No wind62%29.68 "Hg4 mi
3:30 AM84 °FClear.No wind62%29.68 "Hg4 mi
2:30 AM84 °FClear.No wind62%29.68 "Hg4 mi
1:30 AM86 °FClear.No wind62%29.68 "Hg4 mi
12:30 AM86 °FClear.No wind62%29.71 "Hg4 mi
11:30 PM
Thu, Jul 28
88 °FClear.No wind59%29.71 "Hg4 mi
10:30 PM88 °FClear.5 mph59%29.71 "Hg4 mi
Weather by CustomWeather, © 2016

See weather overviewHow to use our weather pages